Tracking 26951 objects as of 3-Feb-2023
HD Live streaming from Space Station
objects crossing your sky now

COSMOS 2292

Track COSMOS 2292 now!
10-day predictions
COSMOS 2292 is classified as:


NORAD ID: 23278
Int'l Code: 1994-061A
Perigee: 402.2 km
Apogee: 1,686.8 km
Inclination: 83.0 °
Period: 105.9 minutes
Semi major axis: 7415 km
RCS: 2.958 m2 (large)
Launch date: September 27, 1994
Source: Commonwealth of Independent States (former USSR) (CIS)
Launch site: PLESETSK MISSILE AND SPACE COMPLEX (PKMTR)
Your satellite tracking list
Your tracking list is empty




NASA's NSSDC Master Catalog

Two Line Element Set (TLE):
1 23278U 94061A   23033.92747203  .00002720  00000-0  23708-3 0  9991
2 23278  82.9755  98.0557 0866172 341.6350  15.5222 13.59534708390112
Source of the keplerian elements: AFSPC